TimeCDT,TemperatureF,Dew PointF,Humidity,Sea Level PressureIn,VisibilityMPH,Wind Direction,Wind SpeedMPH,Gust SpeedMPH,PrecipitationIn,Events,Conditions,WindDirDegrees,DateUTC
12:15 AM,66.4,66.2,99,30.14,10.0,SSW,3.5,-,N/A,,Clear,210,2013-08-23 05:15:00
12:35 AM,67.8,66.4,95,30.14,10.0,Calm,Calm,-,N/A,,Clear,0,2013-08-23 05:35:00
12:55 AM,65.1,65.1,100,30.14,10.0,Calm,Calm,-,N/A,,Clear,0,2013-08-23 05:55:00
1:15 AM,64.6,64.6,100,30.14,7.0,Calm,Calm,-,N/A,,Scattered Clouds,0,2013-08-23 06:15:00
1:35 AM,64.2,64.2,100,30.14,7.0,Calm,Calm,-,N/A,,Scattered Clouds,0,2013-08-23 06:35:00
1:55 AM,65.3,65.3,100,30.14,10.0,Calm,Calm,-,N/A,,Clear,0,2013-08-23 06:55:00
2:15 AM,66.2,66.2,100,30.14,10.0,Calm,Calm,-,N/A,,Clear,0,2013-08-23 07:15:00
2:35 AM,66.4,66.4,100,30.14,10.0,Calm,Calm,-,N/A,,Clear,0,2013-08-23 07:35:00
2:55 AM,64.6,64.6,100,30.14,4.0,Calm,Calm,-,N/A,,Clear,0,2013-08-23 07:55:00
3:15 AM,64.2,64.2,100,30.14,5.0,SE,5.8,-,N/A,,Clear,140,2013-08-23 08:15:00
3:35 AM,62.8,62.8,100,30.15,5.0,ESE,5.8,-,N/A,,Clear,120,2013-08-23 08:35:00
3:55 AM,61.7,61.7,100,30.15,4.0,SE,5.8,-,N/A,,Clear,130,2013-08-23 08:55:00
4:15 AM,60.3,60.3,100,30.15,2.5,East,3.5,-,N/A,,Clear,100,2013-08-23 09:15:00
4:35 AM,60.4,60.4,100,30.15,3.0,ESE,6.9,-,N/A,,Clear,120,2013-08-23 09:35:00
4:55 AM,62.8,62.8,100,30.15,0.5,SE,6.9,-,N/A,,Overcast,130,2013-08-23 09:55:00
5:15 AM,62.8,62.8,100,30.16,0.2,SE,5.8,-,N/A,,Overcast,140,2013-08-23 10:15:00
5:35 AM,62.6,62.6,100,30.17,0.2,SE,3.5,-,N/A,,Overcast,130,2013-08-23 10:35:00
5:55 AM,61.9,61.9,100,30.17,0.2,SE,3.5,-,N/A,,Overcast,130,2013-08-23 10:55:00
6:15 AM,61.5,61.5,100,30.17,0.2,SE,3.5,-,N/A,,Overcast,130,2013-08-23 11:15:00
6:35 AM,61.7,61.7,100,30.17,0.2,ESE,5.8,-,N/A,,Overcast,120,2013-08-23 11:35:00
6:55 AM,61.0,61.0,100,30.18,0.2,SE,8.1,-,N/A,,Overcast,130,2013-08-23 11:55:00
7:15 AM,61.3,61.3,100,30.18,0.2,SE,6.9,-,N/A,,Overcast,130,2013-08-23 12:15:00
7:35 AM,61.9,61.9,100,30.19,0.2,ESE,6.9,-,N/A,,Overcast,120,2013-08-23 12:35:00
7:55 AM,62.6,62.6,100,30.19,0.2,SE,6.9,-,N/A,,Overcast,140,2013-08-23 12:55:00
8:15 AM,63.5,63.5,100,30.19,0.2,SSE,6.9,-,N/A,,Overcast,150,2013-08-23 13:15:00
8:35 AM,63.7,63.7,100,30.20,0.2,SE,6.9,-,N/A,,Overcast,140,2013-08-23 13:35:00
8:55 AM,64.9,64.9,100,30.20,0.2,SSE,5.8,-,N/A,,Overcast,150,2013-08-23 13:55:00
9:15 AM,65.7,65.7,100,30.20,0.2,SE,6.9,-,N/A,,Overcast,140,2013-08-23 14:15:00
9:35 AM,66.6,66.6,100,30.20,0.8,SSE,4.6,-,N/A,,Overcast,160,2013-08-23 14:35:00
9:55 AM,67.3,67.3,100,30.20,4.0,South,6.9,-,N/A,,Overcast,170,2013-08-23 14:55:00
10:15 AM,69.4,69.4,100,30.20,5.0,SSE,8.1,-,N/A,,Overcast,160,2013-08-23 15:15:00
10:35 AM,71.2,69.3,93,30.20,7.0,SSE,6.9,-,N/A,,Overcast,160,2013-08-23 15:35:00
10:55 AM,72.1,68.9,89,30.20,10.0,South,4.6,-,N/A,,Mostly Cloudy,180,2013-08-23 15:55:00
11:15 AM,74.5,68.2,81,30.20,10.0,SSE,10.4,-,N/A,,Overcast,160,2013-08-23 16:15:00
11:35 AM,73.0,67.5,83,30.20,10.0,South,9.2,-,N/A,,Mostly Cloudy,170,2013-08-23 16:35:00
11:55 AM,76.1,66.4,72,30.20,10.0,SSE,8.1,-,N/A,,Mostly Cloudy,160,2013-08-23 16:55:00
12:15 PM,75.9,64.6,68,30.20,10.0,South,8.1,-,N/A,,Mostly Cloudy,190,2013-08-23 17:15:00
12:35 PM,77.0,64.0,64,30.19,10.0,SSE,8.1,-,N/A,,Scattered Clouds,160,2013-08-23 17:35:00
12:55 PM,76.6,63.7,64,30.18,10.0,South,6.9,-,N/A,,Scattered Clouds,190,2013-08-23 17:55:00
1:15 PM,77.0,63.7,63,30.18,10.0,SE,5.8,-,N/A,,Mostly Cloudy,140,2013-08-23 18:15:00
1:35 PM,76.3,63.3,64,30.18,10.0,SSE,9.2,-,N/A,,Mostly Cloudy,160,2013-08-23 18:35:00
1:55 PM,78.6,63.0,59,30.18,10.0,South,5.8,-,N/A,,Mostly Cloudy,190,2013-08-23 18:55:00
2:15 PM,77.7,62.1,58,30.17,10.0,SSE,6.9,-,N/A,,Mostly Cloudy,160,2013-08-23 19:15:00
2:35 PM,78.4,62.4,58,30.17,10.0,SSE,9.2,-,N/A,,Scattered Clouds,150,2013-08-23 19:35:00
2:55 PM,79.2,61.5,55,30.17,10.0,SSE,5.8,-,N/A,,Scattered Clouds,150,2013-08-23 19:55:00
3:15 PM,78.1,61.7,57,30.16,10.0,SSW,8.1,-,N/A,,Mostly Cloudy,200,2013-08-23 20:15:00
3:35 PM,79.3,59.7,51,30.16,10.0,South,6.9,16.1,N/A,,Mostly Cloudy,180,2013-08-23 20:35:00
3:55 PM,79.2,57.9,48,30.15,10.0,SSE,4.6,-,N/A,,Scattered Clouds,160,2013-08-23 20:55:00
4:55 PM,79.2,58.1,48,30.15,10.0,SSW,5.8,-,N/A,,Clear,200,2013-08-23 21:55:00
5:15 PM,78.8,57.4,48,30.15,10.0,SSE,9.2,-,N/A,,Clear,160,2013-08-23 22:15:00
5:35 PM,78.8,57.6,48,30.15,10.0,South,5.8,-,N/A,,Clear,180,2013-08-23 22:35:00
5:55 PM,77.9,57.2,49,30.14,10.0,SSE,5.8,-,N/A,,Clear,150,2013-08-23 22:55:00
6:15 PM,77.7,57.9,50,30.14,10.0,SSE,5.8,-,N/A,,Clear,160,2013-08-23 23:15:00
6:35 PM,76.5,57.6,52,30.14,10.0,SSE,6.9,-,N/A,,Clear,160,2013-08-23 23:35:00
6:55 PM,75.7,58.8,56,30.14,10.0,SSE,5.8,-,N/A,,Clear,160,2013-08-23 23:55:00
7:15 PM,74.5,59.2,59,30.14,10.0,SSE,4.6,-,N/A,,Clear,150,2013-08-24 00:15:00
7:35 PM,73.0,59.4,62,30.14,10.0,SSE,4.6,-,N/A,,Clear,150,2013-08-24 00:35:00
7:55 PM,71.8,59.2,64,30.14,10.0,SSE,4.6,-,N/A,,Clear,150,2013-08-24 00:55:00
8:35 PM,70.5,59.0,67,30.14,10.0,SSE,4.6,-,N/A,,Clear,150,2013-08-24 01:35:00
8:55 PM,69.1,59.2,71,30.15,10.0,SSE,5.8,-,N/A,,Clear,150,2013-08-24 01:55:00
9:15 PM,68.9,59.2,71,30.15,10.0,SSE,5.8,-,N/A,,Clear,150,2013-08-24 02:15:00
9:35 PM,68.9,59.4,72,30.15,10.0,SSE,5.8,-,N/A,,Clear,150,2013-08-24 02:35:00
9:55 PM,68.7,59.4,72,30.15,10.0,SSE,6.9,-,N/A,,Clear,160,2013-08-24 02:55:00
10:15 PM,69.1,59.5,72,30.16,10.0,South,6.9,-,N/A,,Clear,170,2013-08-24 03:15:00
10:35 PM,67.5,59.4,75,30.16,10.0,SSE,5.8,-,N/A,,Clear,150,2013-08-24 03:35:00
10:55 PM,67.1,59.4,76,30.16,10.0,SSE,5.8,-,N/A,,Clear,160,2013-08-24 03:55:00
11:15 PM,67.1,59.0,75,30.16,10.0,SSE,6.9,-,N/A,,Clear,150,2013-08-24 04:15:00
11:35 PM,67.1,59.0,75,30.16,10.0,SSE,6.9,-,N/A,,Clear,150,2013-08-24 04:35:00
11:55 PM,66.6,59.2,77,30.16,10.0,SE,8.1,-,N/A,,Clear,140,2013-08-24 04:55:00